Gainesville, FL

5:33 AM EDT on March 27, 2017 (GMT -0400)
Gainesville Regional

Weather History for KGNV - July, 2013

Change the Weather History Date:

Friday, July 5, 2013

  Actual Average Record
Temperature  
Mean Temperature 80 °F 81 °F  
Max Temperature 89 °F 91 °F 99 °F (1902)
Min Temperature 71 °F 71 °F 64 °F (1947)
Degree Days  
Heating Degree Days 0 0  
Month to date heating degree days 0 0  
Since 1 June heating degree days 0 0  
Since 1 July heating degree days 0 0  
Cooling Degree Days 15 16  
Month to date cooling degree days 77 80  
Year to date cooling degree days 1097 1029  
Since 1 June cooling degree days 565 519  
Growing Degree Days 30 (Base 50)    
Moisture  
Dew Point 72 °F    
Average Humidity 77    
Maximum Humidity 94    
Minimum Humidity 59    
Precipitation  
Precipitation 0.44 in 0.21 in 2.40 in (1924)
Month to date precipitation 3.10 1.07  
Year to date precipitation 20.35 24.18  
Snow  
Snow 0.00 in 0.00 in 0.00 in ()
Month to date snowfall 0.0 0.0  
Since 1 June snowfall 0.0 0.0  
Since 1 July snowfall 0.0 0.0  
Snow Depth 0.00 in    
Sea Level Pressure  
Sea Level Pressure 30.14 in    
Wind  
Wind Speed 4 mph (ESE)    
Max Wind Speed 31 mph    
Max Gust Speed 44 mph    
Visibility 9 miles    
Events Rain    
T = Trace of Precipitation, MM = Missing Value Source: NWS Daily Summary

Daily Weather History Graph

Daily Weather History Graph

Search for Another Location

Airport or City:

Trip Planner

Search our weather history database for the weather conditions in past years. The results will help you decide how hot, cold, wet, or windy it might be!

Date:

Astronomy

Jul. 05, 2013 Rise Set
Actual Time 6:34 AM EDT 8:33 PM EDT
Civil Twilight 6:06 AM EDT 9:00 PM EDT
Nautical Twilight 5:34 AM EDT 9:33 PM EDT
Astronomical Twilight 4:59 AM EDT 10:08 PM EDT
Moon 4:28 AM EDT (7/5) 6:30 PM EDT (7/5)
Length of Visible Light 14h 53m
Length of Day
13h 59m
Waning Crescent, 6% of the Moon is Illuminated
Jul 5
Waning Crescent
Jul 8
New
Jul 15
First Quarter
Jul 22
Full
Jul 29
Last Quarter

Hourly Weather History & Observations

Time (EDT) Temp. Heat Index Dew Point Humidity Pressure Visibility Wind Dir Wind Speed Gust Speed Precip Events Conditions
12:53 AM 72.0 °F - 69.1 °F 91% 30.16 in 9.0 mi North - - N/A   Partly Cloudy
1:53 AM 72.0 °F - 70.0 °F 93% 30.15 in 10.0 mi North - - N/A   Clear
2:53 AM 71.1 °F - 69.1 °F 93% 30.13 in 10.0 mi North - - N/A   Clear
3:53 AM 72.0 °F - 69.1 °F 91% 30.12 in 10.0 mi North - - N/A   Partly Cloudy
4:53 AM 72.0 °F - 70.0 °F 93% 30.12 in 10.0 mi North - - 0.01 in   Clear
5:53 AM 71.1 °F - 69.1 °F 93% 30.13 in 10.0 mi East 3.5 mph - N/A   Clear
6:53 AM 71.1 °F - 69.1 °F 93% 30.13 in 10.0 mi ENE 4.6 mph - N/A   Clear
7:53 AM 75.9 °F - 73.0 °F 91% 30.14 in 10.0 mi East 3.5 mph - N/A   Clear
8:22 AM 77.0 °F - 73.4 °F 89% 30.16 in 10.0 mi North - - N/A   Partly Cloudy
8:45 AM 78.8 °F - 73.4 °F 83% 30.17 in 10.0 mi SE 5.8 mph - N/A   Mostly Cloudy
8:53 AM 79.0 °F - 73.9 °F 84% 30.16 in 10.0 mi SE 5.8 mph - N/A   Mostly Cloudy
9:13 AM 80.6 °F 85.4 °F 73.4 °F 79% 30.17 in 10.0 mi SE 6.9 mph - N/A   Partly Cloudy
9:53 AM 82.9 °F 90.2 °F 75.0 °F 77% 30.17 in 10.0 mi SE 6.9 mph - N/A   Mostly Cloudy
10:53 AM 84.9 °F 92.1 °F 73.9 °F 69% 30.16 in 10.0 mi ESE 10.4 mph - N/A   Partly Cloudy
11:53 AM 87.1 °F 95.4 °F 73.9 °F 65% 30.16 in 10.0 mi SE 8.1 mph - N/A   Partly Cloudy
12:53 PM 89.1 °F 97.0 °F 73.0 °F 59% 30.13 in 10.0 mi SE 9.2 mph - N/A   Clear
1:23 PM 75.2 °F - 71.6 °F 89% 30.16 in 3.0 mi ENE 16.1 mph 29.9 mph 0.01 in Rain Light Rain
1:53 PM 75.9 °F - 72.0 °F 87% 30.15 in 10.0 mi ENE 4.6 mph - 0.01 in   Scattered Clouds
2:53 PM 77.0 °F - 73.0 °F 88% 30.13 in 10.0 mi East 5.8 mph - 0.00 in   Clear
3:53 PM 81.0 °F 86.2 °F 73.9 °F 79% 30.11 in 10.0 mi ESE 6.9 mph - N/A   Clear
4:53 PM 84.0 °F 91.9 °F 75.0 °F 74% 30.10 in 10.0 mi ESE 5.8 mph - N/A   Clear
5:17 PM 82.4 °F 88.2 °F 73.4 °F 74% 30.14 in 1.8 mi SSE 26.5 mph 43.7 mph 0.00 in Rain Rain
5:27 PM 73.4 °F - 69.8 °F 88% 30.13 in 0.8 mi SE 5.8 mph - 0.22 in Rain Heavy Rain
5:35 PM 75.2 °F - 71.6 °F 89% 30.12 in 2.0 mi Calm Calm - 0.29 in Rain Rain
5:42 PM 75.2 °F - 71.6 °F 89% 30.11 in 9.0 mi Calm Calm - 0.30 in Rain Light Rain
5:53 PM 77.0 °F - 71.1 °F 82% 30.10 in 10.0 mi East 3.5 mph - 0.30 in   Scattered Clouds
6:53 PM 78.1 °F - 73.9 °F 87% 30.11 in 10.0 mi Calm Calm - N/A   Partly Cloudy
7:53 PM 78.1 °F - 73.9 °F 87% 30.12 in 10.0 mi West 3.5 mph - N/A   Mostly Cloudy
8:53 PM 75.9 °F - 73.9 °F 94% 30.13 in 2.5 mi West 4.6 mph - 0.11 in Rain Heavy Rain
9:03 PM 75.2 °F - 73.4 °F 94% 30.14 in 8.0 mi Calm Calm - 0.01 in Rain Light Rain
9:53 PM 75.0 °F - 73.0 °F 94% 30.13 in 10.0 mi Calm Calm - 0.01 in   Partly Cloudy
10:53 PM 75.0 °F - 72.0 °F 90% 30.14 in 10.0 mi Calm Calm - N/A   Scattered Clouds
11:53 PM 73.9 °F - 72.0 °F 93% 30.14 in 10.0 mi Calm Calm - N/A   Partly Cloudy